Time,TemperatureF,DewpointF,PressureIn,WindDirection,WindDirectionDegrees,WindSpeedMPH,WindSpeedGustMPH,Humidity,HourlyPrecipIn,Conditions,Clouds,dailyrainin,SoftwareType,DateUTC
2013-04-23 00:01:00,63.0,56.7,30.08,East,90,2.5,2.5,80,0.00,,,0.00,WUHU216HW,2013-04-23 04:01:00,
2013-04-23 00:02:00,63.0,56.7,30.08,ENE,68,0.4,2.5,80,0.00,,,0.00,WUHU216HW,2013-04-23 04:02:00,
2013-04-23 00:07:00,63.0,56.3,30.08,WSW,248,0.2,3.6,79,0.00,,,0.00,WUHU216HW,2013-04-23 04:07:00,
2013-04-23 00:12:00,63.0,56.7,30.08,North,0,0.4,3.6,80,0.00,,,0.00,WUHU216HW,2013-04-23 04:12:00,
2013-04-23 00:17:00,63.0,56.7,30.08,ENE,68,0.2,3.4,80,0.00,,,0.00,WUHU216HW,2013-04-23 04:17:00,
2013-04-23 00:22:00,62.8,56.5,30.08,WNW,293,0.2,3.4,80,0.00,,,0.00,WUHU216HW,2013-04-23 04:22:00,
2013-04-23 00:27:00,63.0,56.7,30.08,SE,135,0.9,4.0,80,0.00,,,0.00,WUHU216HW,2013-04-23 04:27:00,
2013-04-23 00:32:00,63.0,56.7,30.07,NE,45,1.1,4.0,80,0.00,,,0.00,WUHU216HW,2013-04-23 04:32:00,
2013-04-23 00:37:00,63.0,56.7,30.07,ENE,68,0.4,4.3,80,0.00,,,0.00,WUHU216HW,2013-04-23 04:37:00,
2013-04-23 00:42:00,63.0,56.7,30.07,NE,45,0.4,4.3,80,0.00,,,0.00,WUHU216HW,2013-04-23 04:42:00,
2013-04-23 00:47:00,63.0,56.7,30.07,NE,45,2.5,4.3,80,0.00,,,0.00,WUHU216HW,2013-04-23 04:47:00,
2013-04-23 00:52:00,63.0,56.7,30.07,NNW,338,0.9,4.3,80,0.00,,,0.00,WUHU216HW,2013-04-23 04:52:00,
2013-04-23 00:57:00,62.8,56.5,30.07,ESE,113,1.1,4.7,80,0.00,,,0.00,WUHU216HW,2013-04-23 04:57:00,
2013-04-23 01:02:00,62.8,56.5,30.06,NE,45,0.4,4.7,80,0.00,,,0.00,WUHU216HW,2013-04-23 05:02:00,
2013-04-23 01:07:00,62.8,56.5,30.06,ESE,113,0.2,6.0,80,0.00,,,0.00,WUHU216HW,2013-04-23 05:07:00,
2013-04-23 01:12:00,62.6,56.3,30.06,NNW,338,0.4,6.0,80,0.00,,,0.00,WUHU216HW,2013-04-23 05:12:00,
2013-04-23 01:17:00,62.8,56.5,30.06,West,270,0.7,1.8,80,0.00,,,0.00,WUHU216HW,2013-04-23 05:17:00,
2013-04-23 01:22:00,62.6,56.3,30.06,ESE,113,0.0,1.8,80,0.00,,,0.00,WUHU216HW,2013-04-23 05:22:00,
2013-04-23 01:27:00,62.6,56.3,30.06,NNW,338,0.9,1.3,80,0.00,,,0.00,WUHU216HW,2013-04-23 05:27:00,
2013-04-23 01:32:00,62.6,56.3,30.06,NNW,338,0.7,1.3,80,0.00,,,0.00,WUHU216HW,2013-04-23 05:32:00,
2013-04-23 01:37:00,62.6,56.3,30.06,NNE,23,0.7,2.5,80,0.00,,,0.00,WUHU216HW,2013-04-23 05:37:00,
2013-04-23 01:42:00,62.6,56.3,30.06,NNE,23,0.0,2.5,80,0.00,,,0.00,WUHU216HW,2013-04-23 05:42:00,
2013-04-23 01:47:00,62.6,56.7,30.06,ENE,68,0.4,1.6,81,0.00,,,0.00,WUHU216HW,2013-04-23 05:47:00,
2013-04-23 01:52:00,62.5,56.5,30.06,East,90,0.9,1.1,81,0.00,,,0.00,WUHU216HW,2013-04-23 05:52:00,
2013-04-23 01:57:00,62.3,56.3,30.06,NNW,338,0.0,1.1,81,0.00,,,0.00,WUHU216HW,2013-04-23 05:57:00,
2013-04-23 02:02:00,62.3,56.3,30.06,NW,315,0.4,1.1,81,0.00,,,0.00,WUHU216HW,2013-04-23 06:02:00,
2013-04-23 02:07:00,62.3,56.3,30.05,NW,315,0.4,1.8,81,0.00,,,0.00,WUHU216HW,2013-04-23 06:07:00,
2013-04-23 02:12:00,62.3,56.3,30.05,NW,315,0.4,1.8,81,0.00,,,0.00,WUHU216HW,2013-04-23 06:12:00,
2013-04-23 02:17:00,62.3,56.3,30.05,NW,315,0.4,1.8,81,0.00,,,0.00,WUHU216HW,2013-04-23 06:17:00,
2013-04-23 02:22:00,62.3,56.3,30.05,West,270,0.7,1.8,81,0.00,,,0.00,WUHU216HW,2013-04-23 06:22:00,
2013-04-23 02:27:00,62.3,56.3,30.05,NE,45,0.9,2.0,81,0.00,,,0.00,WUHU216HW,2013-04-23 06:27:00,
2013-04-23 02:31:00,62.3,56.3,30.05,NW,315,0.4,2.0,81,0.00,,,0.00,WUHU216HW,2013-04-23 06:31:00,
2013-04-23 02:36:00,62.3,56.3,30.05,NE,45,0.7,2.0,81,0.00,,,0.00,WUHU216HW,2013-04-23 06:36:00,
2013-04-23 02:41:00,62.3,56.0,30.05,South,180,1.1,2.2,80,0.00,,,0.00,WUHU216HW,2013-04-23 06:41:00,
2013-04-23 02:46:00,62.3,56.0,30.04,NNW,338,0.4,2.2,80,0.00,,,0.00,WUHU216HW,2013-04-23 06:46:00,
2013-04-23 02:51:00,62.3,55.6,30.04,North,0,1.1,1.8,79,0.00,,,0.00,WUHU216HW,2013-04-23 06:51:00,
2013-04-23 02:56:00,62.3,56.0,30.04,WNW,293,0.2,1.1,80,0.00,,,0.00,WUHU216HW,2013-04-23 06:56:00,
2013-04-23 03:01:00,62.3,56.0,30.04,NW,315,0.4,1.1,80,0.00,,,0.00,WUHU216HW,2013-04-23 07:01:00,
2013-04-23 03:06:00,62.3,55.6,30.03,North,0,0.4,1.3,79,0.00,,,0.00,WUHU216HW,2013-04-23 07:06:00,
2013-04-23 03:11:00,62.1,55.5,30.03,NW,315,0.7,1.8,79,0.00,,,0.00,WUHU216HW,2013-04-23 07:11:00,
2013-04-23 03:16:00,62.1,55.5,30.03,North,0,0.0,1.8,79,0.00,,,0.00,WUHU216HW,2013-04-23 07:16:00,
2013-04-23 03:21:00,62.1,55.5,30.03,NW,315,0.2,1.8,79,0.00,,,0.00,WUHU216HW,2013-04-23 07:21:00,
2013-04-23 03:26:00,62.1,55.5,30.03,South,180,0.4,1.6,79,0.00,,,0.00,WUHU216HW,2013-04-23 07:26:00,
2013-04-23 03:31:00,61.9,55.4,30.02,NNW,338,0.4,1.6,79,0.00,,,0.00,WUHU216HW,2013-04-23 07:31:00,
2013-04-23 03:36:00,62.1,55.5,30.03,ENE,68,0.0,2.9,79,0.00,,,0.00,WUHU216HW,2013-04-23 07:36:00,
2013-04-23 03:41:00,62.1,55.5,30.02,North,0,0.2,2.9,79,0.00,,,0.00,WUHU216HW,2013-04-23 07:41:00,
2013-04-23 03:46:00,62.1,55.5,30.02,SSW,203,0.4,1.8,79,0.00,,,0.00,WUHU216HW,2013-04-23 07:46:00,
2013-04-23 03:51:00,62.1,55.9,30.02,NW,315,0.2,3.4,80,0.00,,,0.00,WUHU216HW,2013-04-23 07:51:00,
2013-04-23 03:56:00,61.9,55.4,30.02,North,0,0.4,3.4,79,0.00,,,0.00,WUHU216HW,2013-04-23 07:56:00,
2013-04-23 04:01:00,61.9,55.7,30.02,North,0,0.0,1.6,80,0.00,,,0.00,WUHU216HW,2013-04-23 08:01:00,
2013-04-23 04:06:00,61.7,55.5,30.02,North,0,0.0,1.6,80,0.00,,,0.00,WUHU216HW,2013-04-23 08:06:00,
2013-04-23 04:11:00,61.6,55.4,30.03,NE,45,0.7,1.1,80,0.00,,,0.00,WUHU216HW,2013-04-23 08:11:00,
2013-04-23 04:16:00,61.6,55.7,30.02,NNW,338,0.4,1.1,81,0.00,,,0.00,WUHU216HW,2013-04-23 08:16:00,
2013-04-23 04:21:00,61.6,55.7,30.03,NE,45,0.4,1.8,81,0.00,,,0.00,WUHU216HW,2013-04-23 08:21:00,
2013-04-23 04:26:00,61.6,55.7,30.02,NNE,23,0.4,1.8,81,0.00,,,0.00,WUHU216HW,2013-04-23 08:26:00,
2013-04-23 04:31:00,61.6,55.4,30.02,SE,135,0.4,1.3,80,0.00,,,0.00,WUHU216HW,2013-04-23 08:31:00,
2013-04-23 04:36:00,61.6,55.4,30.02,NNW,338,0.4,1.1,80,0.00,,,0.00,WUHU216HW,2013-04-23 08:36:00,
2013-04-23 04:41:00,61.4,55.2,30.02,ENE,68,0.4,1.3,80,0.00,,,0.00,WUHU216HW,2013-04-23 08:41:00,
2013-04-23 04:46:00,61.4,55.2,30.02,NE,45,0.4,1.3,80,0.00,,,0.00,WUHU216HW,2013-04-23 08:46:00,
2013-04-23 04:51:00,61.4,55.2,30.02,ENE,68,0.4,1.1,80,0.00,,,0.00,WUHU216HW,2013-04-23 08:51:00,
2013-04-23 04:56:00,61.4,55.5,30.03,ESE,113,0.0,1.1,81,0.00,,,0.00,WUHU216HW,2013-04-23 08:56:00,
2013-04-23 05:01:00,61.2,55.4,30.03,NE,45,0.7,1.1,81,0.00,,,0.00,WUHU216HW,2013-04-23 09:01:00,
2013-04-23 05:06:00,61.2,55.4,30.03,North,0,0.0,1.1,81,0.00,,,0.00,WUHU216HW,2013-04-23 09:06:00,
2013-04-23 05:11:00,61.2,55.4,30.03,NNE,23,0.0,1.8,81,0.00,,,0.00,WUHU216HW,2013-04-23 09:11:00,
2013-04-23 05:16:00,61.0,55.2,30.03,ENE,68,0.2,1.8,81,0.00,,,0.00,WUHU216HW,2013-04-23 09:16:00,
2013-04-23 05:21:00,60.8,55.1,30.03,NNE,23,0.4,1.8,81,0.00,,,0.00,WUHU216HW,2013-04-23 09:21:00,
2013-04-23 05:26:00,60.8,55.4,30.03,NE,45,0.9,0.9,82,0.00,,,0.00,WUHU216HW,2013-04-23 09:26:00,
2013-04-23 05:31:00,60.8,55.4,30.03,North,0,0.4,0.9,82,0.00,,,0.00,WUHU216HW,2013-04-23 09:31:00,
2013-04-23 05:36:00,60.8,55.4,30.03,NE,45,0.4,1.1,82,0.00,,,0.00,WUHU216HW,2013-04-23 09:36:00,
2013-04-23 05:42:00,60.7,55.2,30.04,North,0,0.4,1.1,82,0.00,,,0.00,WUHU216HW,2013-04-23 09:42:00,
2013-04-23 05:47:00,60.7,55.2,30.04,NNW,338,0.0,0.9,82,0.00,,,0.00,WUHU216HW,2013-04-23 09:47:00,
2013-04-23 05:52:00,60.7,55.2,30.04,NW,315,0.0,1.1,82,0.00,,,0.00,WUHU216HW,2013-04-23 09:52:00,
2013-04-23 05:57:00,60.5,55.0,30.04,NW,315,0.2,1.1,82,0.00,,,0.00,WUHU216HW,2013-04-23 09:57:00,
2013-04-23 06:02:00,60.5,55.4,30.04,NNE,23,0.2,0.9,83,0.00,,,0.00,WUHU216HW,2013-04-23 10:02:00,
2013-04-23 06:07:00,60.5,55.4,30.04,NNW,338,0.4,1.1,83,0.00,,,0.00,WUHU216HW,2013-04-23 10:07:00,
2013-04-23 06:12:00,60.7,55.5,30.05,NW,315,0.4,1.6,83,0.00,,,0.00,WUHU216HW,2013-04-23 10:12:00,
2013-04-23 06:17:00,60.8,55.4,30.05,NE,45,0.9,1.6,82,0.00,,,0.00,WUHU216HW,2013-04-23 10:17:00,
2013-04-23 06:22:00,60.8,55.4,30.05,ENE,68,0.2,1.6,82,0.00,,,0.00,WUHU216HW,2013-04-23 10:22:00,
2013-04-23 06:27:00,60.7,55.2,30.05,NNE,23,0.0,0.9,82,0.00,,,0.00,WUHU216HW,2013-04-23 10:27:00,
2013-04-23 06:32:00,60.7,55.2,30.05,NE,45,0.0,0.7,82,0.00,,,0.00,WUHU216HW,2013-04-23 10:32:00,
2013-04-23 06:37:00,60.5,55.0,30.05,ENE,68,0.2,0.4,82,0.00,,,0.00,WUHU216HW,2013-04-23 10:37:00,
2013-04-23 06:42:00,60.5,55.4,30.05,NNE,23,0.0,0.4,83,0.00,,,0.00,WUHU216HW,2013-04-23 10:42:00,
2013-04-23 06:47:00,60.3,55.2,30.05,NNE,23,0.0,0.4,83,0.00,,,0.00,WUHU216HW,2013-04-23 10:47:00,
2013-04-23 06:52:00,60.1,55.0,30.05,NNE,23,0.0,0.4,83,0.00,,,0.00,WUHU216HW,2013-04-23 10:52:00,
2013-04-23 06:57:00,60.1,55.0,30.05,NNE,23,0.0,0.4,83,0.00,,,0.00,WUHU216HW,2013-04-23 10:57:00,
2013-04-23 07:02:00,60.1,55.0,30.06,North,0,0.0,0.2,83,0.00,,,0.00,WUHU216HW,2013-04-23 11:02:00,
2013-04-23 07:07:00,59.9,54.8,30.06,East,90,0.0,1.1,83,0.00,,,0.00,WUHU216HW,2013-04-23 11:07:00,
2013-04-23 07:12:00,59.8,54.6,30.06,NW,315,0.0,1.1,83,0.00,,,0.00,WUHU216HW,2013-04-23 11:12:00,
2013-04-23 07:17:00,59.8,54.6,30.06,NE,45,0.0,0.7,83,0.00,,,0.00,WUHU216HW,2013-04-23 11:17:00,
2013-04-23 07:22:00,59.9,55.1,30.07,North,0,0.0,0.7,84,0.00,,,0.00,WUHU216HW,2013-04-23 11:22:00,
2013-04-23 07:27:00,60.1,55.3,30.07,NNE,23,0.4,0.7,84,0.00,,,0.00,WUHU216HW,2013-04-23 11:27:00,
2013-04-23 07:32:00,60.3,55.4,30.07,North,0,0.4,0.7,84,0.00,,,0.00,WUHU216HW,2013-04-23 11:32:00,
2013-04-23 07:37:00,60.7,55.8,30.07,NNE,23,0.0,2.2,84,0.00,,,0.00,WUHU216HW,2013-04-23 11:37:00,
2013-04-23 07:42:00,60.8,55.7,30.07,North,0,0.4,2.2,83,0.00,,,0.00,WUHU216HW,2013-04-23 11:42:00,
2013-04-23 07:47:00,61.0,55.9,30.07,NW,315,0.2,0.7,83,0.00,,,0.00,WUHU216HW,2013-04-23 11:47:00,
2013-04-23 07:52:00,61.2,56.1,30.08,NNW,338,0.0,0.4,83,0.00,,,0.00,WUHU216HW,2013-04-23 11:52:00,
2013-04-23 07:57:00,61.4,56.2,30.08,ENE,68,0.7,1.3,83,0.00,,,0.00,WUHU216HW,2013-04-23 11:57:00,
2013-04-23 08:02:00,61.9,56.7,30.08,ENE,68,0.7,1.3,83,0.00,,,0.00,WUHU216HW,2013-04-23 12:02:00,
2013-04-23 08:07:00,62.6,56.7,30.08,ENE,68,0.2,2.2,81,0.00,,,0.00,WUHU216HW,2013-04-23 12:07:00,
2013-04-23 08:12:00,63.4,57.1,30.08,NNE,23,0.7,2.2,80,0.00,,,0.00,WUHU216HW,2013-04-23 12:12:00,
2013-04-23 08:17:00,64.1,57.8,30.08,NNE,23,0.2,1.8,80,0.00,,,0.00,WUHU216HW,2013-04-23 12:17:00,
2013-04-23 08:22:00,65.2,58.5,30.08,ESE,113,1.1,1.8,79,0.00,,,0.00,WUHU216HW,2013-04-23 12:22:00,
2013-04-23 08:27:00,66.1,58.6,30.08,ESE,113,1.1,2.5,77,0.00,,,0.00,WUHU216HW,2013-04-23 12:27:00,
2013-04-23 08:32:00,66.4,58.2,30.09,NW,315,1.1,2.7,75,0.00,,,0.00,WUHU216HW,2013-04-23 12:32:00,
2013-04-23 08:37:00,65.9,57.3,30.09,North,0,0.0,2.7,74,0.00,,,0.00,WUHU216HW,2013-04-23 12:37:00,
2013-04-23 08:42:00,65.5,57.8,30.09,NW,315,0.7,2.2,76,0.00,,,0.00,WUHU216HW,2013-04-23 12:42:00,
2013-04-23 08:47:00,65.7,58.3,30.09,WNW,293,1.1,2.2,77,0.00,,,0.00,WUHU216HW,2013-04-23 12:47:00,
2013-04-23 08:52:00,66.2,57.7,30.09,East,90,1.8,1.8,74,0.00,,,0.00,WUHU216HW,2013-04-23 12:52:00,
2013-04-23 08:57:00,66.1,57.5,30.10,NNW,338,0.9,2.5,74,0.00,,,0.00,WUHU216HW,2013-04-23 12:57:00,
2013-04-23 09:02:00,66.2,57.7,30.10,NNE,23,1.8,2.5,74,0.00,,,0.00,WUHU216HW,2013-04-23 13:02:00,
2013-04-23 09:07:00,66.2,57.7,30.10,NNE,23,1.1,2.5,74,0.00,,,0.00,WUHU216HW,2013-04-23 13:07:00,
2013-04-23 09:12:00,66.8,57.9,30.10,NNE,23,0.2,3.8,73,0.00,,,0.00,WUHU216HW,2013-04-23 13:12:00,
2013-04-23 09:17:00,67.3,57.6,30.10,ENE,68,0.7,3.8,71,0.00,,,0.00,WUHU216HW,2013-04-23 13:17:00,
2013-04-23 09:22:00,67.7,58.0,30.10,SSW,203,0.7,2.9,71,0.00,,,0.00,WUHU216HW,2013-04-23 13:22:00,
2013-04-23 09:27:00,68.0,58.0,30.10,NW,315,0.2,5.8,70,0.00,,,0.00,WUHU216HW,2013-04-23 13:27:00,
2013-04-23 09:32:00,68.8,58.6,30.10,NNW,338,0.4,5.8,70,0.00,,,0.00,WUHU216HW,2013-04-23 13:32:00,
2013-04-23 09:37:00,70.0,58.5,30.10,North,0,0.4,1.3,67,0.00,,,0.00,WUHU216HW,2013-04-23 13:37:00,
2013-04-23 09:42:00,70.0,59.0,30.10,NE,45,0.4,4.0,68,0.00,,,0.00,WUHU216HW,2013-04-23 13:42:00,
2013-04-23 09:47:00,70.6,59.5,30.10,NNW,338,1.1,4.5,68,0.00,,,0.00,WUHU216HW,2013-04-23 13:47:00,
2013-04-23 09:52:00,70.6,58.6,30.11,ENE,68,0.9,4.5,66,0.00,,,0.00,WUHU216HW,2013-04-23 13:52:00,
2013-04-23 09:57:00,70.2,57.9,30.11,North,0,0.7,4.7,65,0.00,,,0.00,WUHU216HW,2013-04-23 13:57:00,
2013-04-23 10:02:00,69.3,57.9,30.12,NNE,23,0.7,4.7,67,0.00,,,0.00,WUHU216HW,2013-04-23 14:02:00,
2013-04-23 10:07:00,69.3,58.2,30.12,NNW,338,0.4,2.9,68,0.00,,,0.00,WUHU216HW,2013-04-23 14:07:00,
2013-04-23 10:12:00,70.0,58.5,30.12,NNW,338,0.4,2.5,67,0.00,,,0.00,WUHU216HW,2013-04-23 14:12:00,
2013-04-23 10:17:00,70.2,58.7,30.12,NNW,338,0.7,2.5,67,0.00,,,0.00,WUHU216HW,2013-04-23 14:17:00,
2013-04-23 10:22:00,70.0,58.2,30.12,West,270,0.7,2.5,66,0.00,,,0.00,WUHU216HW,2013-04-23 14:22:00,
2013-04-23 10:27:00,70.0,58.5,30.12,NW,315,1.1,1.8,67,0.00,,,0.00,WUHU216HW,2013-04-23 14:27:00,
2013-04-23 10:32:00,70.2,57.9,30.12,NNW,338,0.4,2.2,65,0.00,,,0.00,WUHU216HW,2013-04-23 14:32:00,
2013-04-23 10:37:00,69.5,58.0,30.12,NE,45,0.4,3.4,67,0.00,,,0.00,WUHU216HW,2013-04-23 14:37:00,
2013-04-23 10:42:00,69.5,58.0,30.12,NW,315,1.6,3.4,67,0.00,,,0.00,WUHU216HW,2013-04-23 14:42:00,
2013-04-23 10:47:00,69.5,57.6,30.12,NNW,338,0.9,2.2,66,0.00,,,0.00,WUHU216HW,2013-04-23 14:47:00,
2013-04-23 10:52:00,69.5,58.0,30.12,NNW,338,1.1,4.9,67,0.00,,,0.00,WUHU216HW,2013-04-23 14:52:00,
2013-04-23 10:57:00,69.8,58.3,30.12,WNW,293,1.1,4.9,67,0.00,,,0.00,WUHU216HW,2013-04-23 14:57:00,
2013-04-23 11:02:00,70.4,58.4,30.13,West,270,0.2,1.8,66,0.00,,,0.00,WUHU216HW,2013-04-23 15:02:00,
2013-04-23 11:07:00,70.7,58.0,30.13,ENE,68,1.8,3.4,64,0.00,,,0.00,WUHU216HW,2013-04-23 15:07:00,
2013-04-23 11:12:00,70.6,58.2,30.13,NNW,338,1.6,5.8,65,0.00,,,0.00,WUHU216HW,2013-04-23 15:12:00,
2013-04-23 11:17:00,69.8,57.5,30.13,NNW,338,0.7,5.8,65,0.00,,,0.00,WUHU216HW,2013-04-23 15:17:00,
2013-04-23 11:22:00,69.8,58.3,30.13,NW,315,0.7,2.7,67,0.00,,,0.00,WUHU216HW,2013-04-23 15:22:00,
2013-04-23 11:27:00,70.2,57.4,30.13,SSW,203,3.1,7.2,64,0.00,,,0.00,WUHU216HW,2013-04-23 15:27:00,
2013-04-23 11:32:00,70.6,58.2,30.13,SW,225,0.7,7.2,65,0.00,,,0.00,WUHU216HW,2013-04-23 15:32:00,
2013-04-23 11:37:00,70.7,57.5,30.13,North,0,0.2,9.6,63,0.00,,,0.00,WUHU216HW,2013-04-23 15:37:00,
2013-04-23 11:42:00,70.9,58.5,30.13,NW,315,0.4,9.6,65,0.00,,,0.00,WUHU216HW,2013-04-23 15:42:00,
2013-04-23 11:47:00,71.1,58.3,30.13,North,0,0.9,5.4,64,0.00,,,0.00,WUHU216HW,2013-04-23 15:47:00,
2013-04-23 11:52:00,70.4,58.1,30.13,SW,225,0.9,5.4,65,0.00,,,0.00,WUHU216HW,2013-04-23 15:52:00,
2013-04-23 11:57:00,71.1,59.1,30.13,North,0,1.1,3.4,66,0.00,,,0.00,WUHU216HW,2013-04-23 15:57:00,
2013-04-23 12:02:00,71.3,58.4,30.13,NE,45,0.7,3.4,64,0.00,,,0.00,WUHU216HW,2013-04-23 16:02:00,
2013-04-23 12:07:00,71.6,59.2,30.13,ESE,113,1.1,2.7,65,0.00,,,0.00,WUHU216HW,2013-04-23 16:07:00,
2013-04-23 12:12:00,71.3,58.1,30.13,ESE,113,0.9,2.7,63,0.00,,,0.00,WUHU216HW,2013-04-23 16:12:00,
2013-04-23 12:17:00,70.9,57.7,30.13,ESE,113,3.8,7.6,63,0.00,,,0.00,WUHU216HW,2013-04-23 16:17:00,
2013-04-23 12:22:00,70.2,57.9,30.13,NNW,338,0.7,7.6,65,0.00,,,0.00,WUHU216HW,2013-04-23 16:22:00,
2013-04-23 12:27:00,70.9,57.7,30.13,SE,135,9.8,9.8,63,0.00,,,0.00,WUHU216HW,2013-04-23 16:27:00,
2013-04-23 12:32:00,70.6,58.6,30.13,NNW,338,0.9,9.8,66,0.00,,,0.00,WUHU216HW,2013-04-23 16:32:00,
2013-04-23 12:37:00,71.1,58.3,30.12,ENE,68,1.8,9.8,64,0.00,,,0.00,WUHU216HW,2013-04-23 16:37:00,
2013-04-23 12:42:00,70.9,57.7,30.12,North,0,2.7,5.4,63,0.00,,,0.00,WUHU216HW,2013-04-23 16:42:00,
2013-04-23 12:47:00,70.9,57.7,30.12,NNE,23,2.0,5.4,63,0.00,,,0.00,WUHU216HW,2013-04-23 16:47:00,
2013-04-23 12:52:00,70.9,58.5,30.12,ESE,113,1.1,4.0,65,0.00,,,0.00,WUHU216HW,2013-04-23 16:52:00,
2013-04-23 12:57:00,71.3,58.4,30.12,NNE,23,3.1,4.0,64,0.00,,,0.00,WUHU216HW,2013-04-23 16:57:00,
2013-04-23 13:02:00,71.3,58.1,30.12,ENE,68,0.9,4.7,63,0.00,,,0.00,WUHU216HW,2013-04-23 17:02:00,
2013-04-23 13:07:00,71.5,58.2,30.11,NE,45,1.1,4.7,63,0.00,,,0.00,WUHU216HW,2013-04-23 17:07:00,
2013-04-23 13:12:00,71.6,59.2,30.11,East,90,1.1,3.6,65,0.00,,,0.00,WUHU216HW,2013-04-23 17:12:00,
2013-04-23 13:17:00,71.8,58.5,30.11,NNW,338,0.2,3.6,63,0.00,,,0.00,WUHU216HW,2013-04-23 17:17:00,
2013-04-23 13:22:00,71.8,59.4,30.11,NNE,23,1.1,3.4,65,0.00,,,0.00,WUHU216HW,2013-04-23 17:22:00,
2013-04-23 13:27:00,71.5,58.6,30.11,East,90,0.9,6.9,64,0.00,,,0.00,WUHU216HW,2013-04-23 17:27:00,
2013-04-23 13:32:00,71.8,58.5,30.11,ESE,113,2.7,6.9,63,0.00,,,0.00,WUHU216HW,2013-04-23 17:32:00,
2013-04-23 13:37:00,71.1,57.4,30.11,NNE,23,5.8,5.8,62,0.00,,,0.00,WUHU216HW,2013-04-23 17:37:00,
2013-04-23 13:42:00,71.3,58.4,30.11,WNW,293,0.7,5.8,64,0.00,,,0.00,WUHU216HW,2013-04-23 17:42:00,
2013-04-23 13:47:00,71.8,58.5,30.11,East,90,0.4,5.8,63,0.00,,,0.00,WUHU216HW,2013-04-23 17:47:00,
2013-04-23 13:52:00,72.4,59.1,30.11,SE,135,4.9,4.9,63,0.00,,,0.00,WUHU216HW,2013-04-23 17:52:00,
2013-04-23 13:57:00,72.0,58.7,30.11,SSE,158,1.1,7.8,63,0.00,,,0.00,WUHU216HW,2013-04-23 17:57:00,
2013-04-23 14:02:00,71.8,58.1,30.11,ESE,113,4.0,7.8,62,0.00,,,0.00,WUHU216HW,2013-04-23 18:02:00,
2013-04-23 14:07:00,71.6,58.3,30.11,West,270,1.3,5.6,63,0.00,,,0.00,WUHU216HW,2013-04-23 18:07:00,
2013-04-23 14:12:00,70.9,58.2,30.11,ESE,113,6.0,7.4,64,0.00,,,0.00,WUHU216HW,2013-04-23 18:12:00,
2013-04-23 14:17:00,71.8,59.9,30.11,ESE,113,0.7,7.4,66,0.00,,,0.00,WUHU216HW,2013-04-23 18:17:00,
2013-04-23 14:22:00,72.2,58.4,30.11,East,90,0.9,6.5,62,0.00,,,0.00,WUHU216HW,2013-04-23 18:22:00,
2013-04-23 14:27:00,71.6,57.5,30.11,NE,45,1.8,6.5,61,0.00,,,0.00,WUHU216HW,2013-04-23 18:27:00,
2013-04-23 14:32:00,70.9,57.2,30.11,ENE,68,5.6,10.3,62,0.00,,,0.00,WUHU216HW,2013-04-23 18:32:00,
2013-04-23 14:37:00,71.3,58.1,30.11,ENE,68,0.7,10.3,63,0.00,,,0.00,WUHU216HW,2013-04-23 18:37:00,
2013-04-23 14:42:00,71.6,58.8,30.11,NE,45,1.3,6.9,64,0.00,,,0.00,WUHU216HW,2013-04-23 18:42:00,
2013-04-23 14:47:00,71.8,58.1,30.11,ESE,113,0.2,5.6,62,0.00,,,0.00,WUHU216HW,2013-04-23 18:47:00,
2013-04-23 14:52:00,72.0,58.7,30.11,ENE,68,1.1,5.6,63,0.00,,,0.00,WUHU216HW,2013-04-23 18:52:00,
2013-04-23 14:57:00,71.3,58.1,30.11,North,0,0.7,3.8,63,0.00,,,0.00,WUHU216HW,2013-04-23 18:57:00,
2013-04-23 15:02:00,70.9,57.2,30.11,NNW,338,0.4,4.7,62,0.00,,,0.00,WUHU216HW,2013-04-23 19:02:00,
2013-04-23 15:07:00,70.0,57.2,30.10,West,270,0.9,5.6,64,0.00,,,0.00,WUHU216HW,2013-04-23 19:07:00,
2013-04-23 15:12:00,70.9,56.9,30.10,ENE,68,1.1,5.6,61,0.00,,,0.00,WUHU216HW,2013-04-23 19:12:00,
2013-04-23 15:17:00,70.9,56.9,30.10,NNE,23,0.4,5.1,61,0.00,,,0.00,WUHU216HW,2013-04-23 19:17:00,
2013-04-23 15:22:00,70.7,56.7,30.10,North,0,3.8,9.2,61,0.00,,,0.00,WUHU216HW,2013-04-23 19:22:00,
2013-04-23 15:27:00,70.7,56.7,30.10,ENE,68,2.5,9.2,61,0.00,,,0.00,WUHU216HW,2013-04-23 19:27:00,
2013-04-23 15:32:00,70.4,56.8,30.10,West,270,0.4,6.9,62,0.00,,,0.00,WUHU216HW,2013-04-23 19:32:00,
2013-04-23 15:37:00,70.4,56.8,30.10,NE,45,0.9,6.9,62,0.00,,,0.00,WUHU216HW,2013-04-23 19:37:00,
2013-04-23 15:42:00,70.2,56.2,30.10,West,270,6.0,6.0,61,0.00,,,0.00,WUHU216HW,2013-04-23 19:42:00,
2013-04-23 15:47:00,70.0,56.4,30.10,NNW,338,3.4,8.5,62,0.00,,,0.00,WUHU216HW,2013-04-23 19:47:00,
2013-04-23 15:52:00,70.0,56.4,30.10,East,90,2.0,8.5,62,0.00,,,0.00,WUHU216HW,2013-04-23 19:52:00,
2013-04-23 15:57:00,70.2,57.4,30.10,NNW,338,1.1,5.8,64,0.00,,,0.00,WUHU216HW,2013-04-23 19:57:00,
2013-04-23 16:02:00,70.4,56.3,30.10,ENE,68,3.4,5.8,61,0.00,,,0.00,WUHU216HW,2013-04-23 20:02:00,
2013-04-23 16:07:00,70.2,56.2,30.10,ESE,113,0.4,3.8,61,0.00,,,0.00,WUHU216HW,2013-04-23 20:07:00,
2013-04-23 16:12:00,70.6,56.5,30.10,NNW,338,4.7,4.7,61,0.00,,,0.00,WUHU216HW,2013-04-23 20:12:00,
2013-04-23 16:17:00,69.8,55.9,30.10,SE,135,1.1,4.7,61,0.00,,,0.00,WUHU216HW,2013-04-23 20:17:00,
2013-04-23 16:22:00,69.3,56.6,30.10,North,0,0.4,4.7,64,0.00,,,0.00,WUHU216HW,2013-04-23 20:22:00,
2013-04-23 16:27:00,69.5,56.4,30.10,West,270,0.9,3.6,63,0.00,,,0.00,WUHU216HW,2013-04-23 20:27:00,
2013-04-23 16:32:00,69.5,55.5,30.10,NE,45,1.1,8.3,61,0.00,,,0.00,WUHU216HW,2013-04-23 20:32:00,
2013-04-23 16:37:00,69.3,56.2,30.10,South,180,1.1,8.3,63,0.00,,,0.00,WUHU216HW,2013-04-23 20:37:00,
2013-04-23 16:42:00,68.8,55.6,30.10,SW,225,2.5,4.0,63,0.00,,,0.00,WUHU216HW,2013-04-23 20:42:00,
2013-04-23 16:47:00,68.8,56.1,30.09,North,0,0.0,4.0,64,0.00,,,0.00,WUHU216HW,2013-04-23 20:47:00,
2013-04-23 16:52:00,69.1,56.4,30.09,East,90,1.8,3.4,64,0.00,,,0.00,WUHU216HW,2013-04-23 20:52:00,
2013-04-23 16:57:00,68.9,56.3,30.09,ENE,68,0.4,5.1,64,0.00,,,0.00,WUHU216HW,2013-04-23 20:57:00,
2013-04-23 17:02:00,68.6,56.4,30.09,ESE,113,1.6,5.1,65,0.00,,,0.00,WUHU216HW,2013-04-23 21:02:00,
2013-04-23 17:07:00,68.8,56.5,30.09,South,180,0.7,3.4,65,0.00,,,0.00,WUHU216HW,2013-04-23 21:07:00,
2013-04-23 17:12:00,68.8,56.1,30.09,NW,315,3.4,3.8,64,0.00,,,0.00,WUHU216HW,2013-04-23 21:12:00,
2013-04-23 17:17:00,68.6,56.7,30.09,SE,135,0.9,7.2,66,0.00,,,0.00,WUHU216HW,2013-04-23 21:17:00,
2013-04-23 17:22:00,68.9,56.7,30.09,SSE,158,0.7,7.2,65,0.00,,,0.00,WUHU216HW,2013-04-23 21:22:00,
2013-04-23 17:27:00,68.9,55.8,30.09,ESE,113,2.0,6.9,63,0.00,,,0.00,WUHU216HW,2013-04-23 21:27:00,
2013-04-23 17:32:00,68.9,56.7,30.08,NW,315,0.7,5.6,65,0.00,,,0.00,WUHU216HW,2013-04-23 21:32:00,
2013-04-23 17:37:00,68.6,56.4,30.08,NE,45,0.2,3.4,65,0.00,,,0.00,WUHU216HW,2013-04-23 21:37:00,
2013-04-23 17:42:00,68.0,55.8,30.08,SE,135,4.0,4.0,65,0.00,,,0.00,WUHU216HW,2013-04-23 21:42:00,
2013-04-23 17:47:00,67.7,55.4,30.08,NE,45,1.1,6.3,65,0.00,,,0.00,WUHU216HW,2013-04-23 21:47:00,
2013-04-23 17:52:00,67.5,55.7,30.08,SE,135,4.5,6.3,66,0.00,,,0.00,WUHU216HW,2013-04-23 21:52:00,
2013-04-23 17:57:00,67.3,56.4,30.08,NNE,23,0.2,6.3,68,0.00,,,0.00,WUHU216HW,2013-04-23 21:57:00,
2013-04-23 18:02:00,67.3,56.0,30.08,NNW,338,0.4,4.7,67,0.00,,,0.00,WUHU216HW,2013-04-23 22:02:00,
2013-04-23 18:07:00,67.3,56.0,30.08,NNE,23,0.4,6.9,67,0.00,,,0.00,WUHU216HW,2013-04-23 22:07:00,
2013-04-23 18:12:00,67.0,55.6,30.08,ESE,113,0.7,6.9,67,0.00,,,0.00,WUHU216HW,2013-04-23 22:12:00,
2013-04-23 18:17:00,67.0,56.1,30.09,ESE,113,2.2,6.7,68,0.00,,,0.00,WUHU216HW,2013-04-23 22:17:00,
2013-04-23 18:22:00,66.8,55.9,30.09,NE,45,1.1,4.0,68,0.00,,,0.00,WUHU216HW,2013-04-23 22:22:00,
2013-04-23 18:27:00,66.6,55.7,30.09,ENE,68,1.6,3.4,68,0.00,,,0.00,WUHU216HW,2013-04-23 22:27:00,
2013-04-23 18:32:00,66.2,55.7,30.09,SSE,158,0.4,4.7,69,0.00,,,0.00,WUHU216HW,2013-04-23 22:32:00,
2013-04-23 18:37:00,65.7,55.7,30.09,North,0,1.1,4.7,70,0.00,,,0.00,WUHU216HW,2013-04-23 22:37:00,
2013-04-23 18:42:00,65.5,55.9,30.09,NNE,23,0.7,1.8,71,0.00,,,0.00,WUHU216HW,2013-04-23 22:42:00,
2013-04-23 18:47:00,65.5,55.9,30.09,East,90,2.5,2.5,71,0.00,,,0.00,WUHU216HW,2013-04-23 22:47:00,
2013-04-23 18:52:00,65.3,55.7,30.09,NNW,338,0.7,4.7,71,0.00,,,0.00,WUHU216HW,2013-04-23 22:52:00,
2013-04-23 18:57:00,65.2,55.9,30.09,ENE,68,0.4,4.7,72,0.00,,,0.00,WUHU216HW,2013-04-23 22:57:00,
2013-04-23 19:02:00,65.0,55.8,30.09,WNW,293,0.4,3.4,72,0.00,,,0.00,WUHU216HW,2013-04-23 23:02:00,
2013-04-23 19:07:00,64.6,55.8,30.09,North,0,0.9,4.3,73,0.00,,,0.00,WUHU216HW,2013-04-23 23:07:00,
2013-04-23 19:12:00,64.4,55.6,30.09,North,0,0.2,4.3,73,0.00,,,0.00,WUHU216HW,2013-04-23 23:12:00,
2013-04-23 19:18:00,64.3,55.4,30.09,NNE,23,2.2,3.8,73,0.00,,,0.00,WUHU216HW,2013-04-23 23:18:00,
2013-04-23 19:23:00,64.1,55.3,30.09,NNE,23,0.4,3.8,73,0.00,,,0.00,WUHU216HW,2013-04-23 23:23:00,
2013-04-23 19:28:00,63.9,55.4,30.09,NE,45,4.0,4.0,74,0.00,,,0.00,WUHU216HW,2013-04-23 23:28:00,
2013-04-23 19:33:00,63.7,55.3,30.09,NE,45,0.4,4.0,74,0.00,,,0.00,WUHU216HW,2013-04-23 23:33:00,
2013-04-23 19:38:00,63.4,55.3,30.09,WNW,293,0.4,4.0,75,0.00,,,0.00,WUHU216HW,2013-04-23 23:38:00,
2013-04-23 19:43:00,63.2,55.1,30.09,ESE,113,0.7,2.0,75,0.00,,,0.00,WUHU216HW,2013-04-23 23:43:00,
2013-04-23 19:48:00,63.0,54.9,30.09,NE,45,0.2,1.1,75,0.00,,,0.00,WUHU216HW,2013-04-23 23:48:00,
2013-04-23 19:53:00,63.0,54.9,30.09,ENE,68,0.0,0.7,75,0.00,,,0.00,WUHU216HW,2013-04-23 23:53:00,
2013-04-23 19:58:00,62.8,54.7,30.09,East,90,0.4,0.7,75,0.00,,,0.00,WUHU216HW,2013-04-23 23:58:00,
2013-04-23 20:03:00,62.6,54.2,30.09,NE,45,0.0,0.7,74,0.00,,,0.00,WUHU216HW,2013-04-24 00:03:00,
2013-04-23 20:08:00,62.6,54.2,30.09,NE,45,0.0,0.4,74,0.00,,,0.00,WUHU216HW,2013-04-24 00:08:00,
2013-04-23 20:13:00,62.5,54.0,30.09,ENE,68,0.0,1.1,74,0.00,,,0.00,WUHU216HW,2013-04-24 00:13:00,
2013-04-23 20:18:00,62.3,54.2,30.09,East,90,0.2,1.8,75,0.00,,,0.00,WUHU216HW,2013-04-24 00:18:00,
2013-04-23 20:23:00,62.1,54.1,30.09,ENE,68,0.0,1.8,75,0.00,,,0.00,WUHU216HW,2013-04-24 00:23:00,
2013-04-23 20:28:00,61.7,53.7,30.09,ENE,68,0.0,0.4,75,0.00,,,0.00,WUHU216HW,2013-04-24 00:28:00,
2013-04-23 20:33:00,61.7,54.1,30.09,ESE,113,0.4,0.9,76,0.00,,,0.00,WUHU216HW,2013-04-24 00:33:00,
2013-04-23 20:38:00,61.6,53.9,30.09,ESE,113,0.0,0.9,76,0.00,,,0.00,WUHU216HW,2013-04-24 00:38:00,
2013-04-23 20:43:00,61.6,53.9,30.09,ESE,113,0.0,0.4,76,0.00,,,0.00,WUHU216HW,2013-04-24 00:43:00,
2013-04-23 20:48:00,61.6,53.9,30.09,ESE,113,0.0,0.0,76,0.00,,,0.00,WUHU216HW,2013-04-24 00:48:00,
2013-04-23 20:53:00,61.4,53.7,30.09,East,90,0.0,0.7,76,0.00,,,0.00,WUHU216HW,2013-04-24 00:53:00,
2013-04-23 20:58:00,61.2,54.0,30.09,East,90,0.2,0.7,77,0.00,,,0.00,WUHU216HW,2013-04-24 00:58:00,
2013-04-23 21:03:00,60.8,53.6,30.10,ENE,68,0.0,0.4,77,0.00,,,0.00,WUHU216HW,2013-04-24 01:03:00,
2013-04-23 21:08:00,60.8,54.0,30.10,ENE,68,0.0,0.4,78,0.00,,,0.00,WUHU216HW,2013-04-24 01:08:00,
2013-04-23 21:13:00,60.8,54.0,30.10,ENE,68,0.0,0.4,78,0.00,,,0.00,WUHU216HW,2013-04-24 01:13:00,
2013-04-23 21:18:00,60.7,53.8,30.10,NW,315,0.0,0.0,78,0.00,,,0.00,WUHU216HW,2013-04-24 01:18:00,
2013-04-23 21:23:00,60.5,53.6,30.10,NW,315,0.0,0.0,78,0.00,,,0.00,WUHU216HW,2013-04-24 01:23:00,
2013-04-23 21:28:00,60.3,53.5,30.10,NW,315,0.0,0.0,78,0.00,,,0.00,WUHU216HW,2013-04-24 01:28:00,
2013-04-23 21:33:00,60.1,53.3,30.10,NW,315,0.0,0.0,78,0.00,,,0.00,WUHU216HW,2013-04-24 01:33:00,
2013-04-23 21:38:00,59.4,52.9,30.10,NNW,338,0.0,0.0,79,0.00,,,0.00,WUHU216HW,2013-04-24 01:38:00,
2013-04-23 21:43:00,59.4,52.9,30.10,NE,45,0.0,0.0,79,0.00,,,0.00,WUHU216HW,2013-04-24 01:43:00,
2013-04-23 21:48:00,59.4,52.9,30.11,NNE,23,0.0,0.0,79,0.00,,,0.00,WUHU216HW,2013-04-24 01:48:00,
2013-04-23 21:53:00,59.2,52.7,30.11,NNE,23,0.0,0.0,79,0.00,,,0.00,WUHU216HW,2013-04-24 01:53:00,
2013-04-23 21:58:00,59.0,52.6,30.11,NNE,23,0.0,0.0,79,0.00,,,0.00,WUHU216HW,2013-04-24 01:58:00,
2013-04-23 22:03:00,59.0,52.9,30.11,NNE,23,0.0,0.0,80,0.00,,,0.00,WUHU216HW,2013-04-24 02:03:00,
2013-04-23 22:08:00,59.0,52.9,30.11,NNE,23,0.0,0.0,80,0.00,,,0.00,WUHU216HW,2013-04-24 02:08:00,
2013-04-23 22:13:00,59.0,52.9,30.11,NNE,23,0.0,0.0,80,0.00,,,0.00,WUHU216HW,2013-04-24 02:13:00,
2013-04-23 22:18:00,58.7,52.6,30.11,NNE,23,0.0,0.0,80,0.00,,,0.00,WUHU216HW,2013-04-24 02:18:00,
2013-04-23 22:23:00,58.5,52.4,30.11,NNE,23,0.0,0.0,80,0.00,,,0.00,WUHU216HW,2013-04-24 02:23:00,
2013-04-23 22:28:00,58.3,52.2,30.10,NNE,23,0.0,0.0,80,0.00,,,0.00,WUHU216HW,2013-04-24 02:28:00,
2013-04-23 22:33:00,58.3,52.6,30.11,NNW,338,0.0,0.0,81,0.00,,,0.00,WUHU216HW,2013-04-24 02:33:00,
2013-04-23 22:38:00,58.0,52.2,30.11,NNW,338,0.0,0.0,81,0.00,,,0.00,WUHU216HW,2013-04-24 02:38:00,
2013-04-23 22:43:00,57.6,51.9,30.11,NNW,338,0.0,0.0,81,0.00,,,0.00,WUHU216HW,2013-04-24 02:43:00,
2013-04-23 22:48:00,57.2,51.5,30.11,NNW,338,0.0,0.0,81,0.00,,,0.00,WUHU216HW,2013-04-24 02:48:00,
2013-04-23 22:53:00,57.4,51.9,30.11,NNW,338,0.0,0.0,82,0.00,,,0.00,WUHU216HW,2013-04-24 02:53:00,
2013-04-23 22:58:00,57.4,51.9,30.11,NNW,338,0.0,0.0,82,0.00,,,0.00,WUHU216HW,2013-04-24 02:58:00,
2013-04-23 23:03:00,57.2,51.8,30.11,NNW,338,0.0,0.0,82,0.00,,,0.00,WUHU216HW,2013-04-24 03:03:00,
2013-04-23 23:09:00,56.9,51.4,30.10,NW,315,0.0,0.0,82,0.00,,,0.00,WUHU216HW,2013-04-24 03:09:00,
2013-04-23 23:14:00,57.2,52.1,30.11,West,270,0.0,0.0,83,0.00,,,0.00,WUHU216HW,2013-04-24 03:14:00,
2013-04-23 23:19:00,57.1,51.9,30.10,West,270,0.0,0.0,83,0.00,,,0.00,WUHU216HW,2013-04-24 03:19:00,
2013-04-23 23:24:00,56.7,51.6,30.10,West,270,0.0,0.0,83,0.00,,,0.00,WUHU216HW,2013-04-24 03:24:00,
2013-04-23 23:29:00,56.7,51.6,30.10,West,270,0.0,0.0,83,0.00,,,0.00,WUHU216HW,2013-04-24 03:29:00,
2013-04-23 23:35:00,56.7,51.6,30.10,West,270,0.0,0.0,83,0.00,,,0.00,WUHU216HW,2013-04-24 03:35:00,
2013-04-23 23:40:00,56.5,51.4,30.10,West,270,0.0,0.0,83,0.00,,,0.00,WUHU216HW,2013-04-24 03:40:00,
2013-04-23 23:45:00,56.2,50.7,30.10,West,270,0.0,0.0,82,0.00,,,0.00,WUHU216HW,2013-04-24 03:45:00,
2013-04-23 23:50:00,56.0,50.5,30.10,West,270,0.0,0.0,82,0.00,,,0.00,WUHU216HW,2013-04-24 03:50:00,
2013-04-23 23:56:00,55.8,50.3,30.10,West,270,0.0,0.0,82,0.00,,,0.00,WUHU216HW,2013-04-24 03:56:00,